Tracking 19199 objects as of 25-Jun-2018
HD Live streaming from Space Station
objects crossing your sky now

FENGYUN 1C DEB

Track FENGYUN 1C DEB now!
10-day predictions


NORAD ID: 38492
Int'l Code: 1999-025ESB
Perigee: 794.1 km
Apogee: 1,219.1 km
Inclination: 98.6 °
Period: 105.1 minutes
Semi major axis: 7377 km
RCS: 0.0084 m2 (small)
Launch date: May 10, 1999
Source: People's Republic of China (PRC)
Launch site: Taiyaun Space Center, China (TSC)

Note: This is SATELLITE DEBRIS
aabbcc
Your satellite tracking list
Your tracking list is empty




NASA's NSSDC Master Catalog

Two Line Element Set (TLE):
1 38492U 99025ESB 18175.04653648  .00000419  00000-0  39054-3 0  9997
2 38492  98.6211 104.1305 0288056 292.5514  64.5387 13.70022804379690
Source of the keplerian elements: AFSPC